Location: Moscow
(55.7500°N, 37.5830°E)
Time: 08:32:22
(UTC+03:00)

A-11 Canister half - Pass Details

Date: 03 December 2021
Orbit: 1516 x 1684 km, 47.2° (Epoch: 21 January)

Event Time Altitude Azimuth Distance (km) Brightness Sun altitude
Rises 12:47:23 0° 277° (W) 4,876 11.6 11.9°
Reaches altitude 10° 12:50:43 10° 270° (W) 3,907 11.3 11.8°
Maximum altitude 12:59:46 40° 206° (SSW) 2,307 11.1 11.6°
Drops below altitude 10° 13:08:53 10° 142° (SE) 3,943 11.8 11.4°
Sets 13:12:18 0° 135° (SE) 4,925 12.1 11.3°
